This is the latest recevied weather packets stored in our database for station/object KF7PIZ. If no packets are shown the sender has not sent any weather packets the latest 10 day(s).
| Time | Temp. | Humidity | Pressure | Rain* | Wind** | Luminosity | Snow |
|---|---|---|---|---|---|---|---|
| 1777728927 | 6.67° C | 65% | 1016.8 hPa | 0 mm | - | 17 W/m² | - |
| 1777728624 | 6.67° C | 65% | 1016.8 hPa | 0 mm | - | 15 W/m² | - |
| 1777728321 | 6.67° C | 66% | 1016.6 hPa | 0 mm | - | 10 W/m² | - |
| 1777728018 | 6.67° C | 66% | 1016.6 hPa | 0 mm | - | 6 W/m² | - |
| 1777727715 | 6.67° C | 66% | 1016.9 hPa | 0 mm | - | 3 W/m² | - |
| 1777727411 | 6.67° C | 65% | 1016.6 hPa | 0 mm | - | 1 W/m² | - |
| 1777727109 | 6.67° C | 66% | 1016.6 hPa | 0 mm | - | 0 W/m² | - |
| 1777726807 | 6.67° C | 66% | 1016.5 hPa | 0 mm | - | 0 W/m² | - |
| 1777726503 | 6.67° C | 64% | 1016.6 hPa | 0 mm | - | 0 W/m² | - |
| 1777726200 | 6.67° C | 68% | 1016.2 hPa | 0 mm | - | 0 W/m² | - |
| 1777725897 | 6.67° C | 66% | 1016.4 hPa | 0 mm | - | 0 W/m² | - |
| 1777725594 | 6.67° C | 65% | 1016.5 hPa | 0 mm | - | 0 W/m² | - |
| 1777725292 | 6.67° C | 64% | 1016.8 hPa | 0 mm | - | 0 W/m² | - |
| 1777724989 | 6.67° C | 64% | 1016.3 hPa | 0 mm | - | 0 W/m² | - |
| 1777724684 | 6.67° C | 64% | 1016.5 hPa | 0 mm | - | 0 W/m² | - |
| 1777724383 | 6.67° C | 63% | 1016.5 hPa | 0 mm | - | 0 W/m² | - |
| 1777724080 | 6.67° C | 61% | 1016.3 hPa | 0 mm | - | 0 W/m² | - |
| 1777723778 | 7.22° C | 62% | 1016.2 hPa | 0 mm | - | 0 W/m² | - |
| 1777723473 | 7.22° C | 62% | 1016.4 hPa | 0 mm | - | 0 W/m² | - |
| 1777723171 | 7.22° C | 61% | 1016.2 hPa | 0 mm | - | 0 W/m² | - |
| 1777722868 | 7.22° C | 61% | 1016.4 hPa | 0 mm | - | 0 W/m² | - |
| 1777722564 | 7.22° C | 60% | 1016.3 hPa | 0 mm | - | 0 W/m² | - |
| 1777722261 | 7.22° C | 59% | 1016.4 hPa | 0 mm | - | 0 W/m² | - |
| 1777721958 | 7.22° C | 58% | 1016.4 hPa | 0 mm | - | 0 W/m² | - |
| 1777721656 | 7.78° C | 59% | 1016.4 hPa | 0 mm | - | 0 W/m² | - |
* Rain latest hour (hover to see other rain measurements)
** Current wind speed in m/s (hover to see current wind gust speed)